RH
100 87 94 70 63 56 60 65 74 84 73 64 55 42 33 31 36 32 28 20 68 86 100 100 93 71 67 99 99 99 100 99 72 50 49 55 80 87 80 95 83 92 100
100 96 92 92 86 87 74 74 80 73 65 59 49 35 30 32 39 76 73 100 100 100 81 80 80 86 96 100 99 100 80 100 86 68 56 72 79 98 83 100 100 100 100
100 100 98 92 95 90 82 69 60 62 57 52 44 34 35 38 100 100 94 100 100 100 94 84 92 72 88 100 100 82 92 96 79 77 56 55 71 87 92 100 100 100 100
87 97 100 100 89 90 80 68 66 77 64 47 50 40 34 79 100 100 100 100 93 83 74 85 93 86 100 100 100 100 92 88 71 63 54 66 84 67 80 100 100 100 100
81 79 87 86 98 95 99 99 90 72 58 49 38 42 34 100 100 100 100 93 95 99 100 100 100 100 100 98 100 87 70 76 73 66 75 56 61 75 77 78 94 99 100
72 74 85 94 100 100 87 77 65 52 50 42 46 32 92 100 100 100 100 100 100 100 100 100 100 100 100 95 100 100 100 88 88 81 81 85 69 63 62 74 72 80 100
76 84 92 100 99 94 84 61 44 51 47 50 43 31 100 100 100 100 100 79 89 79 100 100 100 96 100 100 100 100 100 93 63 79 78 87 68 62 57 42 40 47 70
58 59 60 60 53 53 54 56 57 81 60 52 32 66 100 100 100 100 94 95 72 100 100 100 100 100 100 100 100 100 100 92 81 74 78 82 79 58 40 37 31 33 36
65 66 74 77 71 64 63 65 76 85 63 47 41 94 100 100 100 100 100 100 97 100 100 100 100 100 100 100 100 100 100 81 98 74 63 54 73 54 42 37 26 23 22
66 69 71 61 54 49 48 52 64 79 50 40 69 100 100 100 100 100 100 100 83 100 100 100 100 100 100 100 100 100 100 100 96 82 91 79 78 60 47 39 31 27 25
46 48 46 44 41 36 34 35 42 56 34 37 83 100 100 100 100 100 100 100 92 100 100 99 100 100 100 100 100 100 100 100 100 100 100 99 81 59 50 53 39 30 31
35 33 32 30 27 27 28 28 32 36 42 56 99 100 100 100 100 100 100 100 100 100 100 100 100 100 100 100 100 100 100 100 100 100 100 87 67 67 65 51 37 35 40
27 28 27 27 27 25 25 25 27 32 42 75 100 100 100 100 100 100 100 100 100 100 90 100 100 100 92 100 100 100 100 100 100 100 100 95 85 77 65 50 48 48 49
24 25 25 26 27 29 31 30 29 38 54 96 100 100 100 100 100 100 100 100 100 100 100 100 94 99 100 100 100 100 100 100 100 100 100 100 100 84 79 52 55 56 53
24 25 25 26 31 38 39 46 48 57 85 100 100 100 100 100 100 100 100 100 100 100 100 100 100 100 89 100 90 100 100 100 100 100 94 87 83 88 99 75 78 74 70
27 29 29 32 37 47 55 58 56 72 99 100 100 100 100 100 100 100 100 100 100 100 100 100 100 100 100 100 100 100 100 99 94 96 83 81 92 79 80 97 94 87 65
42 41 41 46 42 47 52 50 43 52 71 93 89 98 100 100 100 100 98 100 100 100 100 100 100 91 100 100 100 100 100 100 100 100 93 97 100 88 78 88 92 98 85
46 48 48 44 41 45 48 50 48 44 56 62 64 65 68 92 99 94 84 82 82 96 100 90 86 88 100 96 97 100 100 100 100 100 100 97 99 96 78 78 96 97 100
50 50 48 42 40 44 49 55 57 54 56 61 59 44 35 52 64 70 68 73 71 68 75 76 81 80 80 93 100 95 80 91 99 99 100 96 88 85 95 77 73 90 88
38 36 33 33 33 32 31 33 33 34 41 45 62 69 60 49 40 41 48 60 68 63 57 53 62 67 73 77 73 74 73 79 84 68 64 83 87 79 65 68 80 80 75
29 32 32 28 24 25 26 25 24 23 22 23 27 33 42 50 44 46 43 39 40 43 48 56 62 52 54 53 58 66 64 56 55 61 76 71 59 57 63 64 59 57 57
35 34 34 36 36 34 31 28 24 21 18 16 14 13 13 13 14 14 18 19 23 28 30 33 33 37 40 47 52 53 52 57 69 68 62 64 62 64 58 59 59 59 62
45 47 48 46 47 45 43 40 35 30 25 24 22 21 18 13 9 7 6 6 6 7 8 9 11 13 15 19 26 32 42 52 59 62 63 66 75 83 85 87 90 96 94
56 61 59 55 55 53 47 38 29 24 21 20 19 15 13 12 12 11 9 7 5 4 3 4 4 5 5 4 5 8 13 21 29 40 49 58 66 67 64 65 66 68 74
65 62 61 59 57 54 44 34 28 24 21 16 12 9 6 5 4 5 5 4 4 3 3 3 2 2 2 3 3 4 4 4 5 8 13 24 36 45 54 58 59 60 60
67 67 66 64 57 48 38 31 26 22 17 11 8 6 4 3 2 2 2 2 2 2 2 2 2 2 2 2 2 2 2 3 4 4 4 4 6 10 18 27 36 46 55
Wind_Speed
69 66 70 72 70 68 70 70 72 71 76 78 77 76 68 61 60 59 53 48 45 51 57 58 64 63 58 53 53 56 56 51 46 42 47 50 51 53 54 47 47 41 55
67 67 67 65 61 62 65 66 67 69 69 66 66 64 57 53 52 50 42 42 49 56 58 56 57 59 59 53 53 58 49 45 46 41 50 53 52 52 49 43 47 46 57
67 69 62 61 57 62 59 62 66 67 64 61 57 55 53 44 45 49 43 43 49 54 56 56 57 54 57 51 55 52 48 45 42 43 54 55 55 54 53 49 48 51 57
60 60 62 65 64 61 63 60 58 60 61 57 54 49 45 45 45 44 41 31 29 33 38 34 37 35 43 50 52 46 39 41 43 47 54 56 56 57 52 51 50 57 57
60 59 59 59 58 58 61 63 63 65 61 56 49 43 43 49 46 40 35 28 26 31 42 30 24 37 47 52 50 48 48 46 47 53 57 56 56 55 56 58 54 55 64
62 61 61 62 63 65 67 67 67 62 50 55 45 43 49 50 50 44 35 36 33 45 37 42 44 65 56 52 51 49 54 54 51 56 57 54 57 56 55 55 54 59 59
65 64 69 70 72 71 75 71 62 55 50 46 45 46 55 53 51 43 45 49 49 37 40 50 52 47 60 57 51 52 55 57 50 51 53 51 52 53 52 55 55 57 63
58 62 64 67 64 62 59 51 43 41 49 46 44 53 59 59 56 50 49 47 40 41 44 47 55 50 49 50 53 56 58 59 57 52 51 54 56 53 48 48 51 58 64
48 46 48 47 46 45 44 42 41 44 50 45 50 57 57 64 64 50 49 50 47 37 45 45 54 59 56 49 56 61 62 62 60 59 57 58 52 53 51 53 51 51 59
49 48 49 50 48 47 46 45 45 51 52 48 56 56 58 65 70 59 53 55 57 54 46 41 49 62 61 61 60 64 66 64 60 59 56 56 57 58 57 55 53 51 45
49 50 50 49 49 46 44 42 46 57 50 50 58 59 62 66 68 68 58 56 58 67 65 51 53 56 60 64 69 69 69 67 63 62 63 60 61 61 67 61 59 55 47
43 43 44 44 42 40 40 40 47 50 45 55 61 64 65 66 68 68 65 60 62 67 72 61 63 64 68 70 74 77 73 75 70 65 63 61 60 62 61 61 59 55 52
36 37 38 37 37 36 35 38 41 42 48 60 66 71 69 69 68 70 75 73 72 65 66 76 78 74 69 76 81 76 74 72 73 70 71 69 66 62 64 63 57 55 56
35 36 35 34 34 34 34 36 40 44 53 63 70 76 75 75 73 74 78 78 74 75 74 78 81 85 78 76 81 79 78 78 76 78 77 72 69 68 65 67 63 62 60
33 34 33 32 32 33 34 38 44 49 59 66 69 78 81 79 77 80 76 81 77 74 76 83 83 85 83 89 90 88 87 91 86 86 86 83 79 74 71 71 71 70 65
32 33 33 33 34 36 39 44 49 56 66 71 75 78 84 87 86 86 86 87 86 84 83 82 84 85 88 95 93 97 97 99 97 94 91 85 82 82 79 80 80 79 78
33 34 36 38 40 41 44 48 52 60 69 76 79 83 90 93 95 95 95 97 95 93 94 94 91 92 95 98 99 97 98 99 101 99 99 93 91 88 86 85 86 87 84
36 38 40 42 43 43 46 49 51 58 71 76 81 85 90 97 101 101 103 105 105 102 99 98 98 100 98 99 105 106 103 105 106 104 101 99 97 98 98 91 92 92 92
39 41 43 44 44 45 47 49 51 54 60 77 80 79 83 93 99 105 107 110 109 112 113 109 107 104 106 107 106 106 112 113 110 112 110 107 106 105 104 104 101 101 100
40 42 43 45 47 49 51 53 54 55 59 62 77 91 89 87 92 99 106 111 116 118 115 114 119 120 115 112 111 112 113 113 113 117 120 117 116 118 116 113 109 109 108
36 37 39 41 43 46 49 52 55 58 61 64 68 72 79 91 93 95 97 99 107 113 117 123 125 122 120 123 126 123 121 120 119 118 118 119 121 122 122 120 117 118 115
33 35 37 38 40 43 47 50 53 57 61 65 68 71 75 78 81 84 87 90 94 98 100 107 112 117 121 127 130 128 128 128 126 126 125 125 124 123 124 123 123 121 120
33 35 38 40 43 45 48 52 55 58 61 64 67 71 75 78 79 79 79 81 84 88 92 96 100 102 104 105 111 118 125 132 135 136 134 132 132 131 129 129 128 127 126
36 37 40 43 46 50 54 57 59 60 61 63 66 70 72 75 79 82 84 86 85 81 78 80 85 89 93 96 98 104 109 113 120 128 134 137 140 140 139 137 136 134 134
37 40 43 46 50 55 59 60 61 61 62 65 67 67 67 68 70 71 76 81 84 85 84 82 82 79 80 84 89 93 97 100 106 112 116 122 128 133 138 140 140 140 139
41 44 48 52 56 60 61 62 61 63 64 65 64 64 64 62 61 60 63 68 72 76 78 79 78 78 77 77 76 79 84 90 95 98 102 106 111 117 123 127 131 134 137
Wind_Direction
241 245 247 252 257 256 256 256 259 262 262 263 266 270 274 272 272 273 269 260 249 234 233 238 241 239 242 261 257 245 229 232 243 242 235 223 216 219 224 231 236 237 215
242 248 253 255 255 255 257 255 256 259 263 264 268 273 270 268 264 258 251 236 233 236 237 242 250 251 254 260 238 232 231 237 244 237 223 216 217 219 222 222 230 228 222
249 251 251 254 257 260 258 261 261 261 265 269 273 270 267 257 240 240 236 231 232 235 241 251 255 254 250 247 226 234 244 240 244 239 218 216 218 218 223 221 224 225 229
247 249 251 255 257 258 258 265 263 264 267 267 268 265 259 226 230 231 227 218 231 242 248 255 248 250 243 239 232 236 240 239 239 230 220 218 220 222 226 231 234 228 227
254 254 254 256 257 260 261 266 270 266 267 267 263 255 232 219 217 217 216 221 243 247 245 245 214 232 228 234 221 221 236 239 234 225 225 224 225 229 232 234 236 237 232
263 261 260 259 258 260 263 266 270 266 266 260 254 241 212 211 209 209 196 197 203 235 226 221 214 216 222 233 235 242 237 229 226 227 230 232 230 233 236 237 244 244 240
262 263 263 260 260 262 267 268 267 270 253 250 245 221 202 202 202 207 214 209 218 226 227 223 230 235 231 238 232 229 226 225 228 232 233 232 234 239 244 252 248 250 248
261 260 260 262 263 264 263 262 257 242 244 244 228 209 201 197 200 207 215 214 217 225 232 226 234 235 224 229 229 228 229 230 229 233 234 235 237 242 251 251 259 250 250
269 267 267 267 265 263 262 258 250 241 241 233 217 205 205 205 206 212 210 216 208 223 232 232 228 232 231 236 232 234 233 235 235 235 241 242 244 248 252 254 259 265 257
268 269 269 267 263 259 254 249 243 235 237 223 209 205 208 211 212 214 218 218 214 218 227 216 231 230 233 236 233 235 235 238 241 245 247 245 246 253 248 256 271 269 267
265 264 264 265 264 262 260 251 242 237 236 220 207 207 210 214 217 215 220 215 214 218 224 224 229 231 232 229 229 230 235 238 243 244 245 243 248 251 248 261 265 265 261
256 257 258 259 259 258 254 245 239 238 229 213 207 208 211 215 217 218 213 211 216 220 226 228 228 227 230 233 232 232 235 239 241 242 241 244 245 251 253 254 258 261 258
255 255 255 255 255 252 249 244 237 230 220 210 208 208 212 214 217 218 217 218 219 221 223 225 226 227 228 229 233 232 234 235 238 238 242 245 247 251 254 248 250 254 258
248 250 252 251 252 251 247 242 234 222 214 210 211 211 213 216 215 218 221 224 227 228 224 226 228 229 227 230 235 232 238 235 237 241 242 244 246 248 250 247 250 252 254
249 251 254 254 252 250 246 238 232 221 215 214 216 217 217 218 219 219 221 224 226 229 232 232 234 235 234 236 235 236 240 241 240 243 243 244 247 250 252 248 250 250 245
251 253 256 255 252 249 242 236 232 225 216 217 220 221 220 222 223 223 224 224 227 229 232 234 235 236 238 238 240 240 242 245 244 245 246 247 248 251 252 250 248 251 252
253 254 255 255 253 250 247 244 238 232 225 223 224 225 223 224 226 226 227 227 228 230 232 234 237 238 237 238 239 240 243 245 248 249 250 251 251 252 252 250 248 249 252
260 260 259 259 259 259 259 256 252 244 236 233 230 230 230 228 229 230 231 231 233 232 234 236 236 237 239 239 241 240 242 245 246 247 249 251 251 252 251 253 251 251 252
260 261 263 264 266 265 263 262 260 258 253 245 243 246 243 237 236 236 237 236 235 236 236 237 239 239 240 239 241 244 245 245 246 248 249 250 252 252 254 255 252 252 254
268 269 270 269 268 269 269 268 266 263 260 256 250 248 250 251 249 245 243 242 241 242 241 242 242 242 242 243 244 245 245 246 249 251 251 250 252 254 255 255 255 254 254
270 271 271 270 269 268 268 266 265 264 264 262 259 257 255 255 255 255 254 252 250 249 249 247 247 247 246 246 246 247 249 250 250 250 252 252 253 254 255 256 256 256 256
272 274 274 274 274 274 273 272 272 270 269 269 268 267 265 263 262 260 259 259 258 257 255 253 253 253 252 251 250 250 250 250 251 252 253 254 254 254 255 256 258 258 259
276 276 277 278 280 281 281 279 277 276 275 274 274 273 273 273 273 272 269 265 262 260 259 258 257 256 255 254 254 253 252 251 252 252 253 254 255 255 255 256 257 258 259
283 285 286 287 288 288 288 286 286 286 284 281 279 277 275 274 272 272 272 272 273 270 266 262 259 258 257 256 254 252 251 251 251 252 252 253 254 255 256 257 258 259 260
287 290 293 294 295 294 293 294 294 294 293 289 287 285 282 277 273 272 271 270 270 271 271 270 268 265 260 257 256 256 255 253 252 251 250 251 252 253 254 254 256 258 259
292 293 295 296 296 297 298 301 300 298 296 296 295 293 289 285 280 275 272 270 269 269 270 270 269 268 267 265 261 256 253 254 254 253 253 253 252 252 252 253 254 256 257